Regional Weather Roundup
Issued by NWS

Home | Current Version | Previous Version | Text Only | Print | Product List | Glossary Off
Versions: 1 2 3 4 5 6 7 8 9 10 11 12 13 14 15 16 17 18 19 20 21 22 23 24 25 26 27 28 29 30 31 32 33 34 35 36 37 38 39 40 41 42 43 44 45 46 47 48 49 50

000
ASUS43 KLOT 201610
RWRIL

ILLINOIS REGIONAL WEATHER ROUNDUP
NATIONAL WEATHER SERVICE CHICAGO/ROMEOVILLE IL
1100 AM CDT MON OCT 20 2014

NOTE: "FAIR" INDICATES FEW OR NO CLOUDS BELOW 12,000 FEET WITH NO
SIGNIFICANT WEATHER AND/OR OBSTRUCTIONS TO VISIBILITY.

* THESE STATIONS ARE NOT UNDER NWS QUALITY CONTROL. THEY ALSO MAY NOT
  REPORT WEATHER SUCH AS PRECIPITATION OR FOG.

ILZ001-002-007-009-015-016-024-201700-
NORTHWEST ILLINOIS

CITY           SKY/WX    TMP DP  RH WIND       PRES   REMARKS
MOLINE         SUNNY     60  45  57 NW13      29.94S
STERLING*      SUNNY     61  45  55 N15       29.91S
SAVANNA*       SUNNY     60  44  55 NW13      29.93R
$$

ILZ003-004-008-010-011-017-018-201700-
NORTH CENTRAL ILLINOIS

CITY           SKY/WX    TMP DP  RH WIND       PRES   REMARKS
ROCKFORD       SUNNY     59  46  62 NW12      29.90S
FREEPORT*      SUNNY     57  45  62 NW13G20   29.92S
ROCHELLE*      SUNNY     57  46  66 NW6       29.89S
DE KALB*       SUNNY     56  46  68 NW13G18   29.87S
PERU*          SUNNY     60  48  64 NW15      29.90S
$$

ILZ005-006-012>014-019>023-201700-
NORTHEAST ILLINOIS

CITY           SKY/WX    TMP DP  RH WIND       PRES   REMARKS
CHICAGO-OHARE  MOSUNNY   58  46  64 NW12      29.85R
CHICAGO-MIDWAY MOSUNNY   59  48  67 NW7       29.85S
AURORA         SUNNY     59  47  64 NW13      29.87R
LANSING*       SUNNY     57  47  69 NW7       29.85S
JOLIET*        SUNNY     57  47  69 NW7       29.86S
WAUKEGAN       PTSUNNY   57  46  66 W7        29.84R
DUPAGE AIRPORT MOSUNNY   60  47  61 NW13      29.86R
WHEELING       PTSUNNY   59  47  64 N9        29.85S
MORRIS*        SUNNY     59  49  68 N7        29.87R
ROMEOVILLE*    SUNNY     58  46  65 NW6       29.86R
NORTHERLY ISL    N/A     58  46  64 NW6         N/A
$$

LMZ740>746-201700-
SOUTHERN LAKE MICHIGAN

STATION/POSITION SKY/WX   TEMP    WIND        PRES    VSBY  WAVE
                          AIR SEA DIR/SP/G                  HT/PER
                          (F)     (DEG/KT/KT) (MB)    (MI)  (FT/S)
SOUTHERN BUOY              54 55  320/ 10/ 14 1010.2S         2/ 5
WAUKEGAN HARBOR            55     310/  9/ 12   N/A
HARRISON CRIB              54     320/  7/  8   N/A
BURNHAM HARBOR             58     320/  6/ 11   N/A
CALUMET HARBOR             58     280/  2/  5 1009.5R
MICHIGAN CITY              53     240/ 10/ 11   N/A
$$

ILZ025>027-034>036-040-047-049-050-058-095>099-201700-
WEST-CENTRAL ILLINOIS

CITY           SKY/WX    TMP DP  RH WIND       PRES   REMARKS
QUINCY         SUNNY     63  47  55 NW12      29.99S
GALESBURG*     SUNNY     59  46  61 NW14      29.95R
MACOMB*        SUNNY     62  46  56 NW17      29.98S
JACKSONVILLE*  SUNNY     65  48  53 W13G18    29.96S
PITTSFIELD*    SUNNY     65  47  52 NW10      29.99S
$$

ILZ028>032-037-038-041>044-048-051>054-059>061-201700-
CENTRAL ILLINOIS

CITY           SKY/WX    TMP DP  RH WIND       PRES   REMARKS
PONTIAC        SUNNY     61  48  63 NW12      29.88S
BLOOMINGTON    SUNNY     60  48  64 NW10      29.91F
DECATUR        SUNNY     63  50  62 W9        29.93F
PEORIA         SUNNY     63  46  54 NW8       29.92F
LACON*         SUNNY     59  46  60 NW8G17    29.90F
LINCOLN*       SUNNY     62  48  60 NW7       29.92S
SPRINGFIELD    SUNNY     66  48  52 NW10      29.95F
TAYLORVILLE    SUNNY     63  50  63 W10       29.95S
$$

ILZ033-039-045-046-055>057-062-063-201700-
EAST-CENTRAL ILLINOIS

CITY           SKY/WX    TMP DP  RH WIND       PRES   REMARKS
CHAMPAIGN      SUNNY     63  49  60 W15G24    29.90F
DANVILLE*      SUNNY     60  50  69 W9        29.86S
RANTOUL*       SUNNY     64  47  54 W15       29.89F
MATTOON        SUNNY     63  51  65 W13       29.92S
PARIS*         MOSUNNY   64  52  65 W10G18    29.91F
$$

ILZ079-100>102-201700-
SOUTHWEST ILLINOIS

CITY           SKY/WX    TMP DP  RH WIND       PRES   REMARKS
ALTON          SUNNY     64  52  63 W9        29.98
BELLEVILLE     SUNNY     66  55  66 SW7       29.97F
CAHOKIA*       SUNNY     67  53  61 NW10      29.99S
SPARTA*        SUNNY     66  53  62 W10G16    29.99F
$$

ILZ064>066-069>071-074>076-080>082-084>086-088>090-092>094-201700-
SOUTH-CENTRAL ILLINOIS

CITY           SKY/WX    TMP DP  RH WIND       PRES   REMARKS
CARBONDALE     PTSUNNY   64  51  62 SW10      30.00F
CAIRO*         SUNNY     66  51  59 S8        30.03F
EFFINGHAM*     SUNNY     64  49  57 W10       29.94S
MARION         MOSUNNY   63  52  67 SW12      30.00F
MT. VERNON     SUNNY     64  52  63 SW13      29.98F
CENTRALIA*     SUNNY     64  50  60 W9        29.96F
SALEM*         SUNNY     66  54  66 W9        29.96S
METROPOLIS*    MOSUNNY   62  53  72 SW8       30.03F
$$

ILZ067-068-072-073-078-083-087-091-201700-
SOUTHEAST ILLINOIS

CITY           SKY/WX    TMP DP  RH WIND       PRES   REMARKS
LAWRENCEVILLE  MOSUNNY   62  50  64 SW16      29.95F
FLORA*         SUNNY     64  51  62 SW8G20    29.95F
FAIRFIELD*     CLOUDY    62  51  68 SW10      29.96F
HARRISBURG*    MOSUNNY   62  52  70 SW10      30.00F
ROBINSON*      SUNNY     65  52  62 W14       29.94F
CARMI*         MOSUNNY   65  54  66 SW6       29.98F
$$

ABBREVIATIONS USED IN REMARKS
   TC - TEMPERATURE IN CELSIUS
  WCI - WIND CHILL INDEX
   HX - HEAT INDEX
  VSB - VISIBILITY
$$



USA.gov is the U.S. government's official web portal to all federal, state and local government web resources and services.